Location: Iesi
(43.5167°N, 13.2333°E)
Time: 03:20:28
(UTC+00:00)

SL-4 R/B - Pass Details

Date: 08 August 2020
Orbit: 428 x 665 km, 51.6° (Epoch: 25 September)

Event Time Altitude Azimuth Distance (km) Brightness Sun altitude
Rises 20:41:52 0° 252° (WSW) 2,664 5.8 -21.4°
Reaches altitude 10° 20:44:13 10° 258° (WSW) 1,733 4.9 -21.6°
Maximum altitude 20:48:01 49° 334° (NNW) 637 2.7 -22.1°
Enters shadow 20:51:06 13° 48° (NE) 1,443 4.2 -22.4°
